Regional Weather Roundup
Issued by NWS

Home | Current Version | Previous Version | Graphics & Text | Print | Product List | Glossary On
Versions: 1 2 3 4 5 6 7 8 9 10 11 12 13 14 15 16 17 18 19 20 21 22 23 24 25 26 27 28 29 30 31 32 33 34 35 36 37 38 39 40 41 42 43 44 45 46 47 48 49 50
844
ASUS43 KBIS 300910
RWRND

NORTH DAKOTA REGIONAL WEATHER ROUNDUP
NATIONAL WEATHER SERVICE BISMARCK ND
400 AM CDT SAT JUL 30 2016

NOTE: "FAIR" INDICATES FEW OR NO CLOUDS BELOW 12,000 FEET WITH NO
SIGNIFICANT WEATHER AND/OR OBSTRUCTIONS TO VISIBILITY.


NDZ001>003-009>011-017-301000-
NORTHWEST NORTH DAKOTA

CITY           SKY/WX    TMP DP  RH WIND       PRES   REMARKS
WILLISTON      CLEAR     58  54  86 NW3       29.92F
MINOT          CLEAR     62  58  86 CALM      29.91F
MINOT AFB      CLEAR     56  54  95 SE5       29.90F
$$

NDZ018>021-031>035-040>046-301000-
SOUTHWEST NORTH DAKOTA

CITY           SKY/WX    TMP DP  RH WIND       PRES   REMARKS
BISMARCK       TSTM      65  62  90 NE8       29.94R
DICKINSON      CLEAR     56  55  97 N5        29.91F
GARRISON         N/A     63  62  97 SE6       29.92F
HETTINGER ARPT CLEAR     59  54  83 CALM      29.95F
$$

NDZ004>008-012>016-024-026-027-054-301000-
NORTHEAST NORTH DAKOTA

CITY           SKY/WX    TMP DP  RH WIND       PRES   REMARKS
GRAND FORKS    CLOUDY    61  57  87 SW7       29.96S
GRND FRKS AFB  TSTM      63  61  94 S5        29.96F
DEVILS LAKE    CLEAR     66  62  87 S9        29.96F
$$

NDZ022-023-025-028>030-036>039-047>053-301000-
SOUTHEAST NORTH DAKOTA

CITY           SKY/WX    TMP DP  RH WIND       PRES   REMARKS
FARGO          CLOUDY    69  61  75 S9        29.97F
JAMESTOWN      MOCLDY    64  60  87 S7        29.95F
$$





USA.gov is the U.S. government's official web portal to all federal, state and local government web resources and services.